SCP
0 0 -0 -0 -0 -0 -0 -0 0 -0 -0 -0 -0 -0 -0 -0 -0 0 -0 0 0 0 0 0 0 0 0 0 0 0 0 0 0 0 0 0 0 0 0 0 0 0 0 0 0 0 0 0 0 0 0 0 0 1
0 0 -0 -0 -0 -0 -0 -0 0 0 -0 -0 -0 -0 -0 -0 -0 -0 0 0 0 0 0 0 0 0 0 0 0 0 0 0 0 0 0 0 0 0 0 0 0 0 0 0 0 0 0 0 0 -0 0 0 0 0
0 0 -0 -0 -0 -0 -0 0 0 0 -0 -0 -0 -0 -0 0 0 0 0 0 0 0 0 0 0 0 0 0 0 0 0 0 0 0 0 0 0 0 0 0 0 0 0 0 0 0 0 0 -0 -0 0 -0 0 -0
0 0 -0 -0 -0 -0 -0 -0 -0 0 0 0 -0 -0 -0 0 0 0 0 0 0 0 0 0 0 0 0 0 0 0 0 0 0 0 0 0 0 0 0 0 0 0 0 0 0 0 0 0 0 0 0 0 0 0
0 0 -0 -0 -0 -0 -0 -0 0 0 0 -0 -0 -0 -0 -0 -0 0 0 0 0 0 0 0 0 0 0 0 0 0 0 0 0 0 0 0 0 0 0 0 0 0 0 0 0 0 0 -0 0 0 0 0 0 0
0 0 -0 -0 -0 -0 -0 0 0 0 -0 0 -0 -0 -0 -0 -0 0 0 0 0 0 0 0 0 0 0 0 0 0 0 0 0 0 0 0 0 0 0 0 0 0 0 0 -0 0 0 -0 -0 0 0 0 0 0
0 0 0 -0 -0 0 0 0 0 0 0 -0 -0 -0 -0 0 0 0 0 0 -0 0 0 0 0 0 0 0 0 0 0 0 0 0 0 0 0 0 0 0 0 0 0 0 0 -0 0 -0 0 -0 -0 -0 -0 0
0 0 0 0 0 0 0 0 0 0 0 0 -0 -0 0 -0 -0 0 0 0 0 0 0 0 0 0 0 0 0 0 0 0 0 0 0 0 0 0 0 0 0 0 0 0 0 -0 0 -0 -0 -0 0 -0 0 -0
0 0 0 0 0 0 0 0 0 -0 -0 0 0 -0 -0 0 0 0 0 0 0 0 0 0 0 0 0 0 0 0 0 0 0 0 0 0 0 0 0 0 0 0 0 0 -0 -0 -0 -0 -0 -0 0 -0 0 0
0 0 0 0 0 0 0 0 0 -0 -0 0 -0 0 0 0 0 0 0 0 0 0 0 0 -0 0 0 0 0 0 0 0 0 0 0 0 0 0 0 0 0 0 0 0 -0 -0 -0 -0 -0 0 -0 -0 -0 0
0 0 0 0 0 0 0 0 0 0 -0 0 0 0 0 0 0 0 0 0 0 0 0 0 0 0 0 0 0 0 0 0 0 0 0 0 0 0 0 0 0 0 -0 -0 -0 -0 -0 0 -0 -0 0 -0 0 -0
0 0 0 0 0 0 0 0 0 0 0 0 0 0 0 0 0 0 0 0 0 0 0 0 0 0 0 0 0 0 0 0 0 0 0 0 0 -0 -0 0 -0 0 0 0 0 -0 -0 -0 -0 -0 -0 -0 -0 -0
0 0 0 0 0 0 0 0 0 0 -0 -0 0 0 0 0 0 0 0 0 0 0 0 0 0 0 0 0 0 0 0 0 0 0 0 0 0 -0 0 0 0 -0 0 -0 0 -0 -0 0 -0 -0 -0 -0 -0 -0
0 0 0 0 0 0 0 0 0 0 0 0 0 0 0 0 0 0 0 0 0 0 0 0 0 0 0 0 0 0 0 0 0 0 0 0 -0 -0 -0 -0 -0 -0 0 0 0 0 -0 0 0 -0 -0 -0 0 -0
0 0 0 0 0 0 0 0 0 0 0 0 0 0 0 0 0 0 0 0 0 0 0 0 0 0 0 0 0 0 0 0 0 0 0 -0 0 -0 -0 -0 -0 -0 0 0 0 0 0 0 -0 -0 -0 -0 -0 0
0 0 0 0 0 0 0 0 0 0 0 0 0 0 0 0 0 0 0 0 0 0 0 0 0 0 0 0 0 0 0 0 0 0 0 -0 0 -0 -0 -0 -0 -0 0 0 0 0 0 0 0 -0 0 -0 -0 -0
0 0 0 0 0 0 0 0 0 0 0 0 0 0 0 0 0 0 0 0 0 0 0 0 0 0 0 0 0 0 0 0 0 0 -0 -0 0 -0 -0 -0 -0 -0 -0 -0 0 0 -0 -0 -0 -0 -0 -0 -0 -0
0 0 0 0 0 0 0 0 0 0 0 0 0 0 0 0 0 0 0 0 0 0 0 0 0 0 0 0 0 0 0 0 0 0 -0 -0 -0 -0 -0 -0 0 0 -0 -0 -0 -0 -0 -0 -0 -0 -0 -0 -0 -0
0 0 0 0 0 0 0 0 0 0 0 0 0 0 0 0 0 0 0 0 0 0 0 0 0 0 0 0 0 0 0 0 0 -0 -0 -0 0 -0 -0 -0 -0 0 -0 0 0 -0 -0 -0 -0 -0 -0 -0 -0 -0
-0 -0 0 0 0 0 0 0 0 0 0 0 0 0 0 0 0 0 0 0 0 0 0 0 0 0 0 0 0 0 0 -0 -0 -0 0 -0 -0 -0 -0 -0 -0 -0 0 0 -0 0 -0 -0 -0 -0 -0 -0 -0 0
0 0 0 0 0 0 0 0 0 0 0 0 0 0 0 0 0 0 0 0 0 0 0 0 0 -0 0 0 0 0 0 -0 -0 0 0 0 -0 -0 -0 0 -0 0 0 0 0 0 -0 -0 -0 0 -0 -0 -0 -0
0 0 0 0 0 0 0 0 0 0 0 0 -0 -0 0 0 0 0 0 0 0 0 0 0 0 0 0 0 0 0 0 -0 0 -0 0 0 0 0 -0 -0 0 0 0 0 0 -0 0 -0 -0 -0 0 -0 -0 -0
0 0 0 0 0 0 0 0 0 0 0 0 0 0 0 0 0 0 0 0 0 0 0 0 0 0 0 0 0 0 0 0 0 0 0 0 0 -0 -0 -0 -0 -0 0 0 0 -0 0 0 0 0 0 -0 -0 0
0 0 0 0 0 0 0 0 0 0 0 0 0 0 0 -0 -0 -0 -0 0 0 0 0 0 0 0 0 0 0 0 -0 0 0 -0 -0 0 0 -0 -0 0 0 0 0 0 0 0 0 0 0 0 0 0 0 0
0 0 0 0 0 0 0 0 0 0 -0 0 -0 -0 0 -0 0 -0 -0 0 0 0 0 0 -0 -0 -0 0 0 0 -0 -0 0 -0 0 0 0 0 0 0 0 0 -0 -0 -0 0 0 -0 0 0 0 0 0 0
0 0 0 0 0 0 0 0 0 0 0 0 0 0 0 0 0 0 0 0 0 0 0 0 -0 0 -0 -0 0 0 0 0 0 -0 -0 -0 0 -0 0 0 0 0 0 -0 0 0 0 0 0 -0 0 -0 -0 -0
0 0 0 0 0 0 0 0 0 0 0 0 0 0 0 0 0 0 0 0 0 0 0 -0 -0 -0 -0 -0 0 -0 -0 -0 -0 -0 0 -0 0 -0 0 0 0 0 0 -0 -0 -0 -0 -0 -0 -0 0 0 0 0
0 0 0 0 0 0 0 0 0 0 0 0 0 0 0 0 0 -0 0 0 -0 0 0 0 -0 -0 -0 -0 -0 0 -0 -0 -0 -0 0 0 -0 -0 -0 -0 -0 0 -0 -0 -0 -0 -0 0 0 0 0 0 0 0
0 0 0 -0 0 0 0 0 0 0 -0 0 0 0 0 0 0 -0 -0 -0 -0 -0 -0 0 0 0 -0 -0 -0 0 -0 -0 -0 -0 0 0 0 0 -0 -0 0 0 0 0 0 0 -0 0 0 0 0 -0 0 0
-0 -0 0 0 0 0 0 0 0 0 0 0 -0 -0 -0 0 0 0 0 -0 -0 -0 0 -0 -0 -0 0 -0 -0 0 0 0 -0 0 0 0 0 0 0 0 0 0 0 0 0 0 0 -0 -0 0 0 0 0 0
-0 0 0 -0 0 0 0 0 0 0 -0 0 0 -0 0 0 0 -0 -0 -0 0 0 -0 -0 -0 -0 0 0 0 -0 -0 -0 -0 -0 0 0 0 0 0 0 0 0 0 0 0 0 0 0 0 0 0 0 0 0
0 -0 -0 -0 0 0 0 0 0 0 0 0 0 0 0 0 0 0 0 0 -0 -0 0 0 -0 -0 -0 -0 -0 -0 -0 -0 -0 0 0 0 0 0 0 0 0 0 0 0 0 0 0 0 0 0 0 0 0 0
0 0 0 0 0 0 0 0 0 0 0 0 0 0 0 0 0 0 0 0 0 -0 0 0 0 -0 -0 -0 -0 -0 -0 0 0 0 0 0 0 0 0 0 0 0 0 0 0 0 0 0 0 0 0 0 0 0
Wind_Speed_500mb
49 53 58 58 57 52 53 56 42 40 41 39 37 37 36 35 36 28 9 29 24 15 23 10 15 14 16 16 15 32 17 5 20 13 14 18 16 17 17 24 28 22 21 22 21 12 22 39 37 18 13 52 83 37
50 53 58 61 59 52 49 52 44 39 39 37 37 36 34 35 34 30 16 21 26 19 20 25 15 13 17 16 17 17 18 13 17 10 14 11 23 17 25 22 21 10 8 6 10 13 10 12 9 14 25 39 66 83
52 53 57 61 58 52 47 47 43 38 37 35 35 34 34 33 32 31 24 27 33 19 36 24 14 7 9 10 11 16 9 15 13 17 18 14 23 20 19 19 30 19 7 15 25 28 38 16 17 19 36 22 39 53
51 54 58 58 53 51 50 48 41 37 36 34 34 34 34 33 31 28 20 16 23 18 13 13 2 6 6 9 9 11 18 17 19 19 23 14 17 17 17 24 22 29 38 34 34 30 48 39 55 43 44 42 42 38
52 55 58 53 50 49 47 46 38 36 34 32 33 33 34 32 28 28 6 6 13 17 15 28 32 18 9 10 9 11 14 18 21 25 18 14 20 17 18 16 18 19 17 10 10 44 34 52 63 64 64 69 68 50
53 54 54 50 50 47 44 41 39 35 33 32 33 34 33 29 21 14 5 3 7 18 12 8 5 11 14 13 17 21 22 21 22 25 27 20 27 10 2 7 12 26 28 31 34 49 55 66 75 70 49 57 60 56
54 55 52 48 46 41 39 39 37 33 32 32 34 34 29 23 14 6 5 10 26 17 10 13 7 14 12 17 26 33 29 23 22 21 26 28 16 11 11 12 29 34 38 48 50 51 59 51 59 60 55 67 57 42
54 51 47 43 38 35 37 37 30 29 30 33 33 27 19 8 3 6 7 19 19 5 11 8 12 11 6 18 22 18 19 26 29 24 27 16 12 2 6 7 26 40 49 46 45 63 67 60 55 61 57 57 66 46
46 43 40 35 29 36 34 29 26 28 31 30 25 13 4 3 3 8 21 29 6 6 14 12 16 5 5 21 18 30 12 15 12 16 9 1 3 3 11 26 29 35 36 64 75 69 52 46 47 48 40 40 49 53
39 36 32 27 29 30 27 24 25 27 23 18 12 3 4 3 12 21 6 0 5 8 11 15 15 7 21 23 20 18 16 5 7 5 10 7 4 3 12 21 29 42 56 58 61 62 60 57 48 49 46 41 55 42
34 31 28 23 28 26 22 21 24 25 17 15 9 6 9 20 7 5 5 8 12 8 11 15 15 15 24 18 15 12 8 6 6 2 5 2 3 4 24 29 34 43 49 56 61 60 55 57 60 55 52 45 50 41
29 24 19 20 25 22 20 21 22 16 15 18 18 23 14 7 9 8 6 8 12 6 6 10 12 20 17 9 8 6 6 5 6 10 3 2 3 20 29 37 43 49 52 58 59 55 50 48 43 48 45 41 39 40
21 17 16 19 22 18 16 18 22 23 18 5 6 8 6 6 3 10 11 5 8 14 13 13 9 17 3 5 6 7 7 8 17 4 2 2 17 30 36 41 47 51 52 57 52 50 46 49 51 46 45 37 33 34
16 14 16 20 18 16 15 17 20 18 7 9 11 5 9 11 10 10 3 9 11 6 9 13 19 10 3 4 7 8 7 6 4 5 2 12 31 41 44 51 50 52 47 49 52 49 43 48 49 38 36 39 36 32
13 13 17 19 16 14 14 18 16 11 6 9 9 7 14 26 23 17 18 12 5 9 14 16 21 9 4 7 6 8 6 4 2 5 10 25 37 45 51 47 45 47 46 46 48 46 41 46 39 35 38 37 27 23
9 13 12 11 10 10 14 16 7 0 8 9 13 16 24 19 18 23 12 2 4 12 12 13 6 3 6 4 7 6 5 4 5 11 26 30 41 49 53 43 44 46 44 47 42 40 38 37 37 40 38 41 45 40
6 6 15 16 12 12 13 8 6 10 11 10 16 23 24 25 24 22 13 8 3 16 5 5 6 0 6 5 8 4 8 13 27 25 28 32 44 53 47 43 44 47 45 38 35 48 35 33 36 46 50 31 30 38
1 15 18 14 14 10 11 4 8 11 14 22 25 27 18 21 21 24 21 12 7 1 4 5 10 7 6 9 10 9 23 18 20 21 27 40 44 48 45 43 36 30 27 37 23 51 37 37 41 42 38 33 32 33
14 18 16 13 11 6 7 10 9 11 17 26 27 27 22 23 23 22 24 20 14 10 5 6 7 11 9 6 25 27 24 21 25 30 29 37 42 48 52 42 29 34 36 28 25 40 39 47 45 46 46 40 41 38
16 16 14 11 8 5 7 7 9 12 15 14 23 27 24 22 28 27 22 22 22 24 11 7 13 29 23 15 17 13 10 15 25 25 30 36 40 46 45 45 43 30 26 25 30 30 41 38 30 47 46 48 40 40
9 9 8 6 5 9 11 8 11 16 20 22 28 24 23 28 26 25 21 13 18 17 22 22 25 28 29 18 18 25 18 13 17 24 32 39 41 41 49 34 22 13 24 42 36 36 29 39 28 27 35 32 30 48
8 10 5 9 6 7 11 14 14 24 25 35 41 38 26 19 16 15 15 14 14 24 18 22 16 13 16 11 16 22 19 22 23 28 29 37 33 41 27 29 13 27 29 29 31 25 28 32 34 23 15 35 31 27
10 6 6 6 7 7 13 11 9 9 8 9 17 14 8 7 9 9 8 0 3 6 11 17 16 17 17 21 21 20 20 20 22 26 32 30 19 9 29 28 25 27 34 29 28 31 26 25 32 31 30 21 20 22
7 5 5 6 10 9 9 8 11 9 10 18 8 9 12 10 12 10 6 4 2 4 8 11 11 4 5 2 5 11 19 17 28 13 22 21 9 13 16 22 28 30 20 22 30 29 27 21 22 26 28 27 27 26
4 7 8 10 10 8 9 8 15 8 12 22 12 13 7 11 6 6 9 8 10 7 5 5 9 9 11 13 13 20 15 18 25 14 8 4 5 12 16 8 11 19 25 14 18 20 21 22 21 22 24 21 31 26
8 8 12 9 8 9 6 5 4 6 12 11 7 8 11 7 9 8 5 6 8 8 10 9 12 17 17 6 9 18 21 13 23 7 5 5 3 14 20 16 16 22 23 20 20 17 15 17 22 25 26 26 26 25
7 10 16 14 12 11 12 13 21 16 16 10 10 13 5 6 6 8 7 1 6 16 11 5 9 21 23 18 15 29 11 23 7 5 7 4 3 9 10 14 17 20 17 20 28 19 19 21 21 21 20 20 21 22
13 9 18 21 23 18 18 12 8 11 14 19 14 6 6 4 5 2 6 7 9 7 26 25 18 22 26 19 16 22 21 17 3 5 10 5 3 12 13 10 17 22 19 14 22 24 23 19 18 16 16 16 17 19
15 13 12 20 25 16 13 24 28 24 28 21 18 12 11 17 6 6 8 10 9 12 13 16 20 19 23 18 4 20 10 8 6 6 4 8 6 12 13 12 12 10 10 10 12 18 29 20 19 11 12 13 13 14
21 26 25 21 20 11 13 9 15 19 24 27 25 31 35 27 24 17 16 15 15 17 21 24 27 26 22 19 3 7 8 15 13 10 19 22 12 11 10 10 10 12 12 13 13 15 20 15 10 13 19 20 14 21
20 15 16 21 12 18 31 41 44 48 50 54 52 44 39 32 27 24 26 33 28 26 28 26 23 23 11 6 12 8 11 14 15 6 9 9 9 10 9 10 12 14 12 12 13 15 13 13 18 16 18 11 16 17
17 16 13 13 14 19 29 10 7 8 8 7 7 18 31 29 34 28 18 13 17 16 13 12 4 17 12 18 13 17 16 8 11 10 12 14 10 9 8 9 11 11 11 13 14 14 15 16 15 15 19 17 17 18
20 13 11 3 6 7 7 7 6 7 8 6 6 9 11 12 9 5 4 6 11 16 21 28 25 25 26 21 21 15 8 9 7 2 4 5 4 14 17 17 15 15 14 13 14 15 16 17 18 18 18 17 17 19
Wind_Direction_500mb
329 334 337 339 335 337 342 341 338 340 342 345 348 351 355 356 360 16 30 345 1 303 304 346 326 315 320 288 314 355 308 340 303 320 301 339 336 344 322 322 320 314 316 293 292 269 267 12 350 352 329 330 338 304
322 328 332 332 334 332 334 336 335 336 338 341 342 345 349 350 353 353 336 336 335 292 286 312 294 265 275 275 300 308 315 286 13 318 342 330 328 322 320 300 307 321 317 270 255 265 318 144 66 248 313 303 320 303
315 322 327 326 329 330 329 331 329 330 333 334 338 343 346 346 347 347 359 359 342 301 293 242 235 239 274 266 258 288 11 6 329 342 318 306 300 293 296 309 320 318 343 318 313 313 325 294 236 312 263 331 238 287
312 319 323 324 325 326 324 326 322 325 330 331 334 338 340 341 339 337 328 342 348 314 280 126 264 297 262 238 260 265 282 294 292 294 288 310 294 355 314 304 302 319 330 340 307 294 348 333 324 315 301 298 298 297
309 315 318 321 321 320 320 323 321 323 325 326 328 333 334 335 336 336 356 332 349 356 317 308 299 264 238 222 259 276 280 288 293 292 283 281 310 339 340 330 287 7 355 338 310 324 315 300 308 309 314 309 297 285
306 311 313 315 316 315 315 316 319 320 321 322 325 328 328 328 335 12 164 124 236 352 303 287 231 233 244 247 262 264 262 262 275 281 286 291 278 352 22 269 58 354 331 325 308 309 300 289 287 292 304 316 306 294
303 306 309 310 312 310 312 313 317 319 321 322 322 323 322 320 314 254 329 280 316 335 266 280 253 168 214 262 263 260 239 237 255 276 276 287 323 276 286 295 343 339 325 320 312 314 315 307 296 296 292 286 281 289
299 301 305 307 308 310 309 314 317 319 321 320 320 321 319 315 36 345 288 320 326 288 261 274 267 148 177 304 302 297 279 277 278 264 276 278 314 99 252 326 321 326 327 323 316 310 303 298 297 293 281 278 275 266
297 300 301 303 303 307 311 319 323 325 325 323 322 324 62 78 240 256 296 303 282 242 301 276 284 40 224 304 326 296 284 279 315 287 284 301 259 230 314 316 310 313 306 308 319 318 308 297 305 308 315 311 291 275
296 296 295 291 302 309 316 324 328 333 340 0 357 268 232 177 281 309 315 25 241 221 232 259 278 262 341 327 305 321 297 303 303 279 105 205 142 133 323 301 297 310 314 314 306 309 315 304 301 304 304 298 280 269
289 289 287 286 302 307 316 325 332 349 21 344 303 343 329 316 303 218 262 248 205 241 223 276 3 328 318 345 341 323 350 313 264 235 236 220 193 292 318 318 310 315 309 306 310 305 297 294 291 298 292 289 286 280
285 282 275 288 299 305 315 324 333 342 301 306 285 292 301 238 230 238 219 209 234 199 178 285 332 304 315 334 344 299 269 273 285 314 249 272 39 324 319 318 319 322 317 316 319 315 313 310 304 303 294 288 276 273
276 265 275 289 300 301 308 320 332 335 333 344 301 243 237 228 350 239 215 198 174 171 210 235 309 289 242 354 270 251 254 265 325 304 308 338 348 340 331 323 322 319 325 328 332 328 321 318 320 312 306 305 290 274
262 270 284 291 292 297 305 321 331 340 1 256 216 284 232 204 237 232 312 112 247 288 4 318 306 268 212 206 246 249 251 297 273 320 288 19 352 337 332 329 325 326 331 333 335 335 338 337 328 321 314 308 299 280
272 283 284 291 291 292 303 321 328 325 289 267 252 242 230 252 291 300 318 321 24 334 328 308 301 341 136 266 240 295 263 279 303 296 350 342 335 329 330 326 322 324 326 329 332 340 343 351 358 4 2 358 348 0
286 295 301 316 294 293 319 330 4 323 257 250 244 254 270 274 309 354 352 190 240 291 330 338 307 259 239 247 273 247 279 280 13 359 335 329 333 327 323 321 319 320 328 332 333 347 354 6 359 0 355 352 3 19
279 281 298 310 302 307 327 359 253 238 250 243 244 240 261 278 285 296 276 271 227 283 295 282 254 296 304 293 273 307 339 349 350 334 333 331 331 325 322 316 327 334 334 339 354 353 359 14 17 15 16 17 12 19
147 287 307 302 310 323 280 274 253 248 247 255 264 270 300 293 295 291 294 326 251 163 338 223 293 258 269 273 328 341 335 339 341 344 326 329 332 331 329 328 352 12 346 337 15 28 13 35 36 31 29 36 29 26
231 265 307 306 313 311 248 223 230 265 260 273 281 293 301 294 283 279 277 269 242 254 206 257 271 248 263 283 320 312 325 332 333 329 319 332 338 337 326 324 327 314 340 32 37 51 47 38 44 41 36 41 40 35
276 279 291 300 298 267 265 233 213 261 277 293 294 291 294 290 276 274 265 251 242 190 193 204 225 270 288 304 307 313 286 328 333 323 328 334 336 328 318 329 328 323 350 40 36 46 48 47 41 49 46 41 46 49
348 312 308 341 271 243 269 267 241 262 286 285 285 305 287 275 270 264 256 261 272 225 234 248 265 267 289 295 288 303 315 338 327 316 322 321 321 317 311 328 58 15 32 37 40 32 44 40 24 59 60 48 44 56
239 303 284 269 261 259 265 250 273 300 285 276 285 280 276 282 276 277 286 265 246 262 256 264 267 275 280 295 325 316 316 317 317 313 318 327 330 330 321 355 3 31 28 22 24 22 27 28 34 32 66 59 70 63
283 268 243 244 257 249 267 260 255 254 264 278 269 284 280 300 301 277 254 237 289 266 270 279 274 255 270 286 295 298 308 313 312 314 325 325 336 328 333 23 39 41 34 28 23 31 28 25 27 36 55 32 33 42
247 234 246 245 218 266 268 240 237 261 258 259 279 282 306 295 274 260 244 207 184 125 28 29 21 354 194 221 302 314 336 318 309 325 324 319 334 3 24 23 21 9 7 10 20 36 32 31 37 41 45 47 46 51
266 241 217 244 236 239 256 248 251 243 270 284 280 271 274 289 297 278 290 145 177 146 92 50 14 16 346 343 341 342 333 313 337 320 310 247 6 353 346 344 14 17 23 16 12 23 29 38 48 56 47 33 18 27
236 221 205 220 234 235 253 272 252 285 305 304 268 306 321 296 275 275 69 158 178 181 156 133 322 325 314 289 317 336 328 323 344 293 203 184 174 66 34 27 12 17 10 9 9 30 37 35 38 31 32 25 20 17
250 250 221 239 263 274 282 295 313 310 305 271 265 291 277 262 268 50 77 28 208 196 172 286 308 328 332 343 337 350 344 329 349 131 18 191 259 333 56 52 28 4 357 5 20 35 34 32 27 18 13 18 23 25
252 260 252 253 234 251 272 286 300 274 252 249 236 250 251 257 24 219 13 187 195 227 230 235 314 315 316 322 320 349 348 339 359 277 208 221 3 36 29 39 30 43 29 23 30 22 15 3 354 360 13 22 28 29
239 241 256 265 271 259 245 250 240 247 276 297 295 276 257 295 336 303 217 209 237 229 231 271 293 296 303 324 73 9 10 352 94 68 262 54 44 29 11 23 20 19 14 0 32 36 29 43 46 53 32 18 32 43
250 230 236 256 251 255 285 292 304 307 294 299 303 302 303 273 272 315 325 234 235 253 267 280 284 290 294 298 19 64 126 40 67 36 26 23 53 63 35 14 14 11 11 3 356 0 0 359 12 34 35 26 12 12
258 254 245 265 293 289 284 286 280 281 277 269 266 267 270 289 291 273 281 279 281 273 273 276 277 272 278 190 150 131 100 89 48 42 360 32 30 32 12 8 7 11 11 14 14 13 10 25 43 39 27 30 12 8
238 252 271 281 301 304 305 293 281 265 262 261 261 232 235 254 272 287 263 240 246 264 257 256 338 118 98 124 116 104 102 91 172 156 117 70 63 42 28 30 29 28 35 34 35 34 36 37 37 35 32 26 13 5
255 245 254 321 342 294 276 272 266 266 246 244 215 194 200 200 231 271 98 160 136 109 115 124 112 106 108 107 111 121 88 88 93 138 247 257 160 106 75 60 47 45 48 51 50 52 50 49 48 42 36 27 17 10
Wind_Speed_850mb
49 53 58 58 57 52 53 56 42 40 41 39 37 37 36 35 36 28 9 29 24 15 23 10 15 14 16 16 15 32 17 5 20 13 14 18 16 17 17 24 28 22 21 22 21 12 22 39 37 18 13 52 83 37
50 53 58 61 59 52 49 52 44 39 39 37 37 36 34 35 34 30 16 21 26 19 20 25 15 13 17 16 17 17 18 13 17 10 14 11 23 17 25 22 21 10 8 6 10 13 10 12 9 14 25 39 66 83
52 53 57 61 58 52 47 47 43 38 37 35 35 34 34 33 32 31 24 27 33 19 36 24 14 7 9 10 11 16 9 15 13 17 18 14 23 20 19 19 30 19 7 15 25 28 38 16 17 19 36 22 39 53
51 54 58 58 53 51 50 48 41 37 36 34 34 34 34 33 31 28 20 16 23 18 13 13 2 6 6 9 9 11 18 17 19 19 23 14 17 17 17 24 22 29 38 34 34 30 48 39 55 43 44 42 42 38
52 55 58 53 50 49 47 46 38 36 34 32 33 33 34 32 28 28 6 6 13 17 15 28 32 18 9 10 9 11 14 18 21 25 18 14 20 17 18 16 18 19 17 10 10 44 34 52 63 64 64 69 68 50
53 54 54 50 50 47 44 41 39 35 33 32 33 34 33 29 21 14 5 3 7 18 12 8 5 11 14 13 17 21 22 21 22 25 27 20 27 10 2 7 12 26 28 31 34 49 55 66 75 70 49 57 60 56
54 55 52 48 46 41 39 39 37 33 32 32 34 34 29 23 14 6 5 10 26 17 10 13 7 14 12 17 26 33 29 23 22 21 26 28 16 11 11 12 29 34 38 48 50 51 59 51 59 60 55 67 57 42
54 51 47 43 38 35 37 37 30 29 30 33 33 27 19 8 3 6 7 19 19 5 11 8 12 11 6 18 22 18 19 26 29 24 27 16 12 2 6 7 26 40 49 46 45 63 67 60 55 61 57 57 66 46
46 43 40 35 29 36 34 29 26 28 31 30 25 13 4 3 3 8 21 29 6 6 14 12 16 5 5 21 18 30 12 15 12 16 9 1 3 3 11 26 29 35 36 64 75 69 52 46 47 48 40 40 49 53
39 36 32 27 29 30 27 24 25 27 23 18 12 3 4 3 12 21 6 0 5 8 11 15 15 7 21 23 20 18 16 5 7 5 10 7 4 3 12 21 29 42 56 58 61 62 60 57 48 49 46 41 55 42
34 31 28 23 28 26 22 21 24 25 17 15 9 6 9 20 7 5 5 8 12 8 11 15 15 15 24 18 15 12 8 6 6 2 5 2 3 4 24 29 34 43 49 56 61 60 55 57 60 55 52 45 50 41
29 24 19 20 25 22 20 21 22 16 15 18 18 23 14 7 9 8 6 8 12 6 6 10 12 20 17 9 8 6 6 5 6 10 3 2 3 20 29 37 43 49 52 58 59 55 50 48 43 48 45 41 39 40
21 17 16 19 22 18 16 18 22 23 18 5 6 8 6 6 3 10 11 5 8 14 13 13 9 17 3 5 6 7 7 8 17 4 2 2 17 30 36 41 47 51 52 57 52 50 46 49 51 46 45 37 33 34
16 14 16 20 18 16 15 17 20 18 7 9 11 5 9 11 10 10 3 9 11 6 9 13 19 10 3 4 7 8 7 6 4 5 2 12 31 41 44 51 50 52 47 49 52 49 43 48 49 38 36 39 36 32
13 13 17 19 16 14 14 18 16 11 6 9 9 7 14 26 23 17 18 12 5 9 14 16 21 9 4 7 6 8 6 4 2 5 10 25 37 45 51 47 45 47 46 46 48 46 41 46 39 35 38 37 27 23
9 13 12 11 10 10 14 16 7 0 8 9 13 16 24 19 18 23 12 2 4 12 12 13 6 3 6 4 7 6 5 4 5 11 26 30 41 49 53 43 44 46 44 47 42 40 38 37 37 40 38 41 45 40
6 6 15 16 12 12 13 8 6 10 11 10 16 23 24 25 24 22 13 8 3 16 5 5 6 0 6 5 8 4 8 13 27 25 28 32 44 53 47 43 44 47 45 38 35 48 35 33 36 46 50 31 30 38
1 15 18 14 14 10 11 4 8 11 14 22 25 27 18 21 21 24 21 12 7 1 4 5 10 7 6 9 10 9 23 18 20 21 27 40 44 48 45 43 36 30 27 37 23 51 37 37 41 42 38 33 32 33
14 18 16 13 11 6 7 10 9 11 17 26 27 27 22 23 23 22 24 20 14 10 5 6 7 11 9 6 25 27 24 21 25 30 29 37 42 48 52 42 29 34 36 28 25 40 39 47 45 46 46 40 41 38
16 16 14 11 8 5 7 7 9 12 15 14 23 27 24 22 28 27 22 22 22 24 11 7 13 29 23 15 17 13 10 15 25 25 30 36 40 46 45 45 43 30 26 25 30 30 41 38 30 47 46 48 40 40
9 9 8 6 5 9 11 8 11 16 20 22 28 24 23 28 26 25 21 13 18 17 22 22 25 28 29 18 18 25 18 13 17 24 32 39 41 41 49 34 22 13 24 42 36 36 29 39 28 27 35 32 30 48
8 10 5 9 6 7 11 14 14 24 25 35 41 38 26 19 16 15 15 14 14 24 18 22 16 13 16 11 16 22 19 22 23 28 29 37 33 41 27 29 13 27 29 29 31 25 28 32 34 23 15 35 31 27
10 6 6 6 7 7 13 11 9 9 8 9 17 14 8 7 9 9 8 0 3 6 11 17 16 17 17 21 21 20 20 20 22 26 32 30 19 9 29 28 25 27 34 29 28 31 26 25 32 31 30 21 20 22
7 5 5 6 10 9 9 8 11 9 10 18 8 9 12 10 12 10 6 4 2 4 8 11 11 4 5 2 5 11 19 17 28 13 22 21 9 13 16 22 28 30 20 22 30 29 27 21 22 26 28 27 27 26
4 7 8 10 10 8 9 8 15 8 12 22 12 13 7 11 6 6 9 8 10 7 5 5 9 9 11 13 13 20 15 18 25 14 8 4 5 12 16 8 11 19 25 14 18 20 21 22 21 22 24 21 31 26
8 8 12 9 8 9 6 5 4 6 12 11 7 8 11 7 9 8 5 6 8 8 10 9 12 17 17 6 9 18 21 13 23 7 5 5 3 14 20 16 16 22 23 20 20 17 15 17 22 25 26 26 26 25
7 10 16 14 12 11 12 13 21 16 16 10 10 13 5 6 6 8 7 1 6 16 11 5 9 21 23 18 15 29 11 23 7 5 7 4 3 9 10 14 17 20 17 20 28 19 19 21 21 21 20 20 21 22
13 9 18 21 23 18 18 12 8 11 14 19 14 6 6 4 5 2 6 7 9 7 26 25 18 22 26 19 16 22 21 17 3 5 10 5 3 12 13 10 17 22 19 14 22 24 23 19 18 16 16 16 17 19
15 13 12 20 25 16 13 24 28 24 28 21 18 12 11 17 6 6 8 10 9 12 13 16 20 19 23 18 4 20 10 8 6 6 4 8 6 12 13 12 12 10 10 10 12 18 29 20 19 11 12 13 13 14
21 26 25 21 20 11 13 9 15 19 24 27 25 31 35 27 24 17 16 15 15 17 21 24 27 26 22 19 3 7 8 15 13 10 19 22 12 11 10 10 10 12 12 13 13 15 20 15 10 13 19 20 14 21
20 15 16 21 12 18 31 41 44 48 50 54 52 44 39 32 27 24 26 33 28 26 28 26 23 23 11 6 12 8 11 14 15 6 9 9 9 10 9 10 12 14 12 12 13 15 13 13 18 16 18 11 16 17
17 16 13 13 14 19 29 10 7 8 8 7 7 18 31 29 34 28 18 13 17 16 13 12 4 17 12 18 13 17 16 8 11 10 12 14 10 9 8 9 11 11 11 13 14 14 15 16 15 15 19 17 17 18
20 13 11 3 6 7 7 7 6 7 8 6 6 9 11 12 9 5 4 6 11 16 21 28 25 25 26 21 21 15 8 9 7 2 4 5 4 14 17 17 15 15 14 13 14 15 16 17 18 18 18 17 17 19
Wind_Direction_850mb
329 334 337 339 335 337 342 341 338 340 342 345 348 351 355 356 360 16 30 345 1 303 304 346 326 315 320 288 314 355 308 340 303 320 301 339 336 344 322 322 320 314 316 293 292 269 267 12 350 352 329 330 338 304
322 328 332 332 334 332 334 336 335 336 338 341 342 345 349 350 353 353 336 336 335 292 286 312 294 265 275 275 300 308 315 286 13 318 342 330 328 322 320 300 307 321 317 270 255 265 318 144 66 248 313 303 320 303
315 322 327 326 329 330 329 331 329 330 333 334 338 343 346 346 347 347 359 359 342 301 293 242 235 239 274 266 258 288 11 6 329 342 318 306 300 293 296 309 320 318 343 318 313 313 325 294 236 312 263 331 238 287
312 319 323 324 325 326 324 326 322 325 330 331 334 338 340 341 339 337 328 342 348 314 280 126 264 297 262 238 260 265 282 294 292 294 288 310 294 355 314 304 302 319 330 340 307 294 348 333 324 315 301 298 298 297
309 315 318 321 321 320 320 323 321 323 325 326 328 333 334 335 336 336 356 332 349 356 317 308 299 264 238 222 259 276 280 288 293 292 283 281 310 339 340 330 287 7 355 338 310 324 315 300 308 309 314 309 297 285
306 311 313 315 316 315 315 316 319 320 321 322 325 328 328 328 335 12 164 124 236 352 303 287 231 233 244 247 262 264 262 262 275 281 286 291 278 352 22 269 58 354 331 325 308 309 300 289 287 292 304 316 306 294
303 306 309 310 312 310 312 313 317 319 321 322 322 323 322 320 314 254 329 280 316 335 266 280 253 168 214 262 263 260 239 237 255 276 276 287 323 276 286 295 343 339 325 320 312 314 315 307 296 296 292 286 281 289
299 301 305 307 308 310 309 314 317 319 321 320 320 321 319 315 36 345 288 320 326 288 261 274 267 148 177 304 302 297 279 277 278 264 276 278 314 99 252 326 321 326 327 323 316 310 303 298 297 293 281 278 275 266
297 300 301 303 303 307 311 319 323 325 325 323 322 324 62 78 240 256 296 303 282 242 301 276 284 40 224 304 326 296 284 279 315 287 284 301 259 230 314 316 310 313 306 308 319 318 308 297 305 308 315 311 291 275
296 296 295 291 302 309 316 324 328 333 340 0 357 268 232 177 281 309 315 25 241 221 232 259 278 262 341 327 305 321 297 303 303 279 105 205 142 133 323 301 297 310 314 314 306 309 315 304 301 304 304 298 280 269
289 289 287 286 302 307 316 325 332 349 21 344 303 343 329 316 303 218 262 248 205 241 223 276 3 328 318 345 341 323 350 313 264 235 236 220 193 292 318 318 310 315 309 306 310 305 297 294 291 298 292 289 286 280
285 282 275 288 299 305 315 324 333 342 301 306 285 292 301 238 230 238 219 209 234 199 178 285 332 304 315 334 344 299 269 273 285 314 249 272 39 324 319 318 319 322 317 316 319 315 313 310 304 303 294 288 276 273
276 265 275 289 300 301 308 320 332 335 333 344 301 243 237 228 350 239 215 198 174 171 210 235 309 289 242 354 270 251 254 265 325 304 308 338 348 340 331 323 322 319 325 328 332 328 321 318 320 312 306 305 290 274
262 270 284 291 292 297 305 321 331 340 1 256 216 284 232 204 237 232 312 112 247 288 4 318 306 268 212 206 246 249 251 297 273 320 288 19 352 337 332 329 325 326 331 333 335 335 338 337 328 321 314 308 299 280
272 283 284 291 291 292 303 321 328 325 289 267 252 242 230 252 291 300 318 321 24 334 328 308 301 341 136 266 240 295 263 279 303 296 350 342 335 329 330 326 322 324 326 329 332 340 343 351 358 4 2 358 348 0
286 295 301 316 294 293 319 330 4 323 257 250 244 254 270 274 309 354 352 190 240 291 330 338 307 259 239 247 273 247 279 280 13 359 335 329 333 327 323 321 319 320 328 332 333 347 354 6 359 0 355 352 3 19
279 281 298 310 302 307 327 359 253 238 250 243 244 240 261 278 285 296 276 271 227 283 295 282 254 296 304 293 273 307 339 349 350 334 333 331 331 325 322 316 327 334 334 339 354 353 359 14 17 15 16 17 12 19
147 287 307 302 310 323 280 274 253 248 247 255 264 270 300 293 295 291 294 326 251 163 338 223 293 258 269 273 328 341 335 339 341 344 326 329 332 331 329 328 352 12 346 337 15 28 13 35 36 31 29 36 29 26
231 265 307 306 313 311 248 223 230 265 260 273 281 293 301 294 283 279 277 269 242 254 206 257 271 248 263 283 320 312 325 332 333 329 319 332 338 337 326 324 327 314 340 32 37 51 47 38 44 41 36 41 40 35
276 279 291 300 298 267 265 233 213 261 277 293 294 291 294 290 276 274 265 251 242 190 193 204 225 270 288 304 307 313 286 328 333 323 328 334 336 328 318 329 328 323 350 40 36 46 48 47 41 49 46 41 46 49
348 312 308 341 271 243 269 267 241 262 286 285 285 305 287 275 270 264 256 261 272 225 234 248 265 267 289 295 288 303 315 338 327 316 322 321 321 317 311 328 58 15 32 37 40 32 44 40 24 59 60 48 44 56
239 303 284 269 261 259 265 250 273 300 285 276 285 280 276 282 276 277 286 265 246 262 256 264 267 275 280 295 325 316 316 317 317 313 318 327 330 330 321 355 3 31 28 22 24 22 27 28 34 32 66 59 70 63
283 268 243 244 257 249 267 260 255 254 264 278 269 284 280 300 301 277 254 237 289 266 270 279 274 255 270 286 295 298 308 313 312 314 325 325 336 328 333 23 39 41 34 28 23 31 28 25 27 36 55 32 33 42
247 234 246 245 218 266 268 240 237 261 258 259 279 282 306 295 274 260 244 207 184 125 28 29 21 354 194 221 302 314 336 318 309 325 324 319 334 3 24 23 21 9 7 10 20 36 32 31 37 41 45 47 46 51
266 241 217 244 236 239 256 248 251 243 270 284 280 271 274 289 297 278 290 145 177 146 92 50 14 16 346 343 341 342 333 313 337 320 310 247 6 353 346 344 14 17 23 16 12 23 29 38 48 56 47 33 18 27
236 221 205 220 234 235 253 272 252 285 305 304 268 306 321 296 275 275 69 158 178 181 156 133 322 325 314 289 317 336 328 323 344 293 203 184 174 66 34 27 12 17 10 9 9 30 37 35 38 31 32 25 20 17
250 250 221 239 263 274 282 295 313 310 305 271 265 291 277 262 268 50 77 28 208 196 172 286 308 328 332 343 337 350 344 329 349 131 18 191 259 333 56 52 28 4 357 5 20 35 34 32 27 18 13 18 23 25
252 260 252 253 234 251 272 286 300 274 252 249 236 250 251 257 24 219 13 187 195 227 230 235 314 315 316 322 320 349 348 339 359 277 208 221 3 36 29 39 30 43 29 23 30 22 15 3 354 360 13 22 28 29
239 241 256 265 271 259 245 250 240 247 276 297 295 276 257 295 336 303 217 209 237 229 231 271 293 296 303 324 73 9 10 352 94 68 262 54 44 29 11 23 20 19 14 0 32 36 29 43 46 53 32 18 32 43
250 230 236 256 251 255 285 292 304 307 294 299 303 302 303 273 272 315 325 234 235 253 267 280 284 290 294 298 19 64 126 40 67 36 26 23 53 63 35 14 14 11 11 3 356 0 0 359 12 34 35 26 12 12
258 254 245 265 293 289 284 286 280 281 277 269 266 267 270 289 291 273 281 279 281 273 273 276 277 272 278 190 150 131 100 89 48 42 360 32 30 32 12 8 7 11 11 14 14 13 10 25 43 39 27 30 12 8
238 252 271 281 301 304 305 293 281 265 262 261 261 232 235 254 272 287 263 240 246 264 257 256 338 118 98 124 116 104 102 91 172 156 117 70 63 42 28 30 29 28 35 34 35 34 36 37 37 35 32 26 13 5
255 245 254 321 342 294 276 272 266 266 246 244 215 194 200 200 231 271 98 160 136 109 115 124 112 106 108 107 111 121 88 88 93 138 247 257 160 106 75 60 47 45 48 51 50 52 50 49 48 42 36 27 17 10